Content
SEND FEEDBACK

Daily
Averages
Monthly
Summary
United States of America

LINCOLN, ILLINOIS


Home > North America > United States > Illinois
Elevation: 555 feet     Latitude: 40 09N     Longitude: 089 24W

WEATHER
 
SELECT A DAY
Number of Records: 325,321;   Date Range: 9/6/01 - 9/14/14
 
SHARE

PRINT THIS DATA

[ ← Previous Day ]
WEATHER ALMANAC - APRIL 23, 2013
[ Next Day → ]
[ °C ]   °F
Weather ElementAverageHighLow
Temperature50.2 °F59.2 °F (12:35 am)40.5 °F (11:35 pm)
Dewpoint45.8 °F53.1 °F (11:15 am)37.6 °F (11:35 pm)
Humidity85.4 %95 % (4:35 pm)66 % (12:35 am)
Barometer29.96 in30.06 in (12:35 am)29.90 in (3:35 pm)
Wind Speed6.5 mph12.7 mph (7:15 pm)
Wind Gust20.7 mph (5:55 pm)
Weather ElementAverage
Visibility8.7 mi
Wind DirectionSSW (218.9 °)

Weather ElementTotal
Precipitation0.77 in
Heating Degree Days15.2 (Base 65)
Averaged from 70 records on April 23, 2013
WEATHER CONDITIONS BREAKOUT
WIND DIRECTION BREAKOUT
WEATHER BY HOUR - APRIL 23, 2013
[ °C ]   °F
Local TimeTemperatureDewpointHumidityBarometerVisibilityWind DirectionWind SpeedGust SpeedPrecipitationEventsConditions
12:35 AM59.2 °F48.0 °F66 %30.06 in10.0 miSSW (210°)8.1 mphRainLight Rain
12:55 AM58.3 °F49.3 °F72 %30.04 in10.0 miCalmRainLight Rain
1:15 AM55.9 °F49.8 °F80 %30.02 in10.0 miCalmRainRain
1:35 AM54.7 °F50.0 °F84 %30.00 in10.0 miCalmRainLight Rain
1:55 AM54.5 °F49.8 °F84 %30.00 in10.0 miSE (130°)3.5 mphOvercast
2:15 AM55.9 °F49.1 °F78 %29.99 in10.0 miESE (110°)3.5 mphOvercast
2:35 AM55.4 °F48.9 °F79 %29.99 in10.0 miCalmOvercast
2:55 AM54.5 °F49.3 °F83 %29.99 in10.0 miCalmOvercast
3:15 AM55.4 °F48.4 °F77 %29.99 in10.0 miCalmOvercast
3:35 AM55.9 °F48.2 °F75 %29.99 in10.0 miSSE (160°)3.5 mphOvercast
3:55 AM55.9 °F48.2 °F75 %29.98 in10.0 miSouth (170°)5.8 mphOvercast
4:15 AM54.9 °F48.4 °F79 %29.96 in10.0 miSouth (170°)5.8 mphMostly Cloudy
4:35 AM55.8 °F47.8 °F75 %29.94 in10.0 miSouth (170°)5.8 mphClear
4:55 AM55.8 °F47.7 °F74 %29.95 in10.0 miSouth (170°)6.9 mphScattered Clouds
5:15 AM56.1 °F47.7 °F73 %29.95 in10.0 miSouth (180°)6.9 mphMostly Cloudy
5:35 AM55.4 °F47.7 °F75 %29.96 in10.0 miSouth (190°)5.8 mphScattered Clouds
5:55 AM55.8 °F47.8 °F75 %29.96 in10.0 miSouth (180°)9.2 mphMostly Cloudy
6:15 AM55.6 °F47.8 °F75 %29.95 in10.0 miSouth (180°)9.2 mphScattered Clouds
6:35 AM55.4 °F48.2 °F77 %29.95 in10.0 miSouth (180°)9.2 mphMostly Cloudy
6:55 AM55.4 °F48.2 °F77 %29.95 in10.0 miSouth (180°)8.1 mphOvercast
7:15 AM56.1 °F48.2 °F75 %29.94 in10.0 miSouth (180°)9.2 mphOvercast
7:35 AM56.5 °F48.2 °F74 %29.94 in10.0 miSouth (190°)9.2 mphScattered Clouds
7:55 AM56.8 °F48.2 °F73 %29.95 in10.0 miSouth (190°)9.2 mph16.1 mphMostly Cloudy
8:15 AM57.2 °F48.4 °F72 %29.95 in10.0 miSSW (200°)5.8 mphOvercast
8:35 AM57.2 °F48.9 °F74 %29.96 in10.0 miCalmRainLight Rain
8:55 AM56.8 °F49.6 °F77 %29.97 in10.0 miSSW (210°)4.6 mphRainRain
9:15 AM57.6 °F50.4 °F77 %29.98 in10.0 miWest (270°)5.8 mphRainRain
9:35 AM56.8 °F50.9 °F80 %29.98 in10.0 miWSW (240°)5.8 mphRainRain
9:55 AM56.5 °F51.8 °F84 %29.98 in7.0 miWest (270°)3.5 mphRainLight Rain
10:15 AM55.8 °F52.2 °F88 %29.98 in7.0 miCalm0.01 inDrizzle
10:35 AM55.4 °F52.7 °F91 %29.98 in5.0 miCalm0.02 inRainLight Rain
10:55 AM55.2 °F52.3 °F90 %29.98 in5.0 miCalm0.02 inRainRain
11:15 AM56.1 °F53.1 °F89 %29.96 in5.0 miCalm0.01 inRainLight Rain
11:35 AM55.9 °F52.7 °F89 %29.97 in7.0 miCalm0.01 inDrizzle
11:55 AM55.4 °F52.5 °F90 %29.95 in7.0 miCalm0.01 inDrizzle
12:15 PM55.6 °F52.5 °F89 %29.94 in7.0 miCalmLight Drizzle
12:35 PM54.3 °F51.6 °F91 %29.94 in5.0 miNW (310°)8.1 mphLight Drizzle
12:55 PM51.6 °F49.3 °F92 %29.96 in5.0 miWNW (300°)8.1 mphRainLight Rain
1:15 PM48.4 °F46.2 °F92 %29.97 in5.0 miNW (320°)8.1 mph16.1 mph0.01 inRainRain
1:35 PM47.5 °F45.5 °F93 %29.94 in7.0 miNNW (330°)6.9 mph0.03 inRainLight Rain
1:55 PM48.0 °F45.9 °F92 %29.92 in10.0 miNorth (360°)10.4 mph0.05 inRainRain
2:15 PM48.2 °F46.0 °F92 %29.91 in10.0 miNorth (360°)11.5 mphRainLight Rain
2:35 PM48.4 °F46.0 °F92 %29.91 in10.0 miNorth (360°)10.4 mphOvercast
3:15 PM47.3 °F44.8 °F91 %29.92 in10.0 miNorth (10°)8.1 mphOvercast
3:35 PM47.1 °F44.8 °F92 %29.90 in7.0 miNorth (360°)6.9 mph0.02 inRainRain
3:55 PM46.6 °F44.8 °F93 %29.90 in3.0 miNNW (340°)6.9 mph0.08 inRain-ThunderstormHeavy Thunderstorms and Rain
4:15 PM45.7 °F44.1 °F94 %29.91 in4.0 miNW (320°)9.2 mph0.04 inRain-ThunderstormRain
4:35 PM45.0 °F43.7 °F95 %29.92 in5.0 miNW (320°)9.2 mph0.09 inRainRain
4:55 PM44.1 °F42.6 °F95 %29.91 in4.0 miNNW (330°)9.2 mph16.1 mph0.14 inRainRain
5:15 PM43.9 °F42.4 °F95 %29.92 in2.5 miNNW (330°)6.9 mph18.4 mph0.04 inRainRain
5:35 PM43.5 °F41.9 °F94 %29.93 in10.0 miNNW (330°)6.9 mph16.1 mph0.06 inRainRain
5:55 PM43.0 °F41.4 °F94 %29.92 in4.0 miNNW (340°)11.5 mph20.7 mph0.11 inRainRain
6:15 PM42.8 °F41.2 °F94 %29.94 in10.0 miNNW (330°)11.5 mphThunderstorm
6:35 PM42.8 °F40.6 °F92 %29.93 in10.0 miNNW (340°)10.4 mphLight Drizzle
6:55 PM42.4 °F40.5 °F93 %29.92 in10.0 miNNW (340°)10.4 mph17.3 mphThunderstorm
7:15 PM42.1 °F40.1 °F93 %29.91 in10.0 miNorth (350°)12.7 mph19.6 mphOvercast
7:35 PM42.3 °F40.5 °F93 %29.92 in10.0 miNorth (350°)8.1 mph17.3 mphOvercast
7:55 PM41.9 °F39.7 °F92 %29.93 in10.0 miNNW (340°)9.2 mph16.1 mphDrizzle
8:15 PM41.9 °F39.6 °F91 %29.94 in10.0 miNNW (340°)9.2 mph16.1 mphLight Drizzle
8:35 PM41.7 °F39.2 °F91 %29.94 in10.0 miNNW (340°)9.2 mphOvercast
8:55 PM41.4 °F38.8 °F91 %29.96 in10.0 miNorth (350°)9.2 mph16.1 mphOvercast
9:15 PM41.4 °F39.2 °F92 %29.95 in10.0 miNNW (340°)9.2 mphOvercast
9:35 PM41.2 °F38.7 °F91 %29.96 in10.0 miNorth (350°)9.2 mph17.3 mphOvercast
9:55 PM41.0 °F38.3 °F90 %29.97 in10.0 miNorth (350°)12.7 mph17.3 mphOvercast
10:15 PM41.0 °F38.3 °F90 %29.97 in10.0 miNorth (350°)9.2 mphRainRain
10:35 PM41.0 °F37.9 °F89 %29.98 in10.0 miNNW (340°)8.1 mph17.3 mphDrizzle
10:55 PM41.0 °F38.3 °F90 %29.98 in10.0 miNNW (340°)8.1 mphLight Drizzle
11:15 PM41.0 °F38.3 °F90 %30.00 in10.0 miNNW (340°)6.9 mphOvercast
11:35 PM40.5 °F37.6 °F89 %29.98 in10.0 miNorth (350°)12.7 mph16.1 mphRainLight Rain
11:55 PM40.5 °F38.3 °F92 %30.01 in10.0 miNNW (330°)8.1 mph0.02 inRainLight Rain
Hourly data recorded from KAAA, located miles away from Lincoln, Illinois







STORIES FROM OUR PARTNERS